Tracking 18647 objects as of 30-May-2017
HD Live streaming from Space Station
objects crossing your sky now

FENGYUN 2B AKM

Track FENGYUN 2B AKM now!


NORAD ID: 26460
Int'l Code: 2000-032C
Perigee: 35,719.1 km
Apogee: 35,923.0 km
Inclination: 12.4 °
Period: 1,437.5 minutes
Semi major axis: 42192 km
RCS: 7.9432 m2 (large)
Launch date: June 25, 2000
Source: People's Republic of China (PRC)
Launch site: Xichang Space Center, China (XSC)

Note: This is a ROCKET BODY
Your satellite tracking list
Your tracking list is empty





NASA's NSSDC Master Catalog

Two Line Element Set (TLE):
1 26460U 00032C   17146.53292045 -.00000300 +00000-0 +00000-0 0  9996
2 26460 012.3869 033.2495 0024162 310.8928 048.8324 01.00174337089025
Source of the keplerian elements: AFSPC